Time,TemperatureF,DewpointF,PressureIn,WindDirection,WindDirectionDegrees,WindSpeedMPH,WindSpeedGustMPH,Humidity,HourlyPrecipIn,Conditions,Clouds,dailyrainin,SoftwareType,DateUTC
2013-07-29 00:00:00,70.2,41.3,29.62,North,353,0.0,0.0,35,0.00,,---,0.00,VWS V13.01,2013-07-29 04:00:00,
2013-07-29 00:20:00,70.2,41.3,29.62,North,353,0.0,0.0,35,0.00,,---,0.00,VWS V13.01,2013-07-29 04:20:00,
2013-07-29 00:40:00,70.2,41.3,29.62,North,353,0.0,0.0,35,0.00,,---,0.00,VWS V13.01,2013-07-29 04:40:00,
2013-07-29 01:00:00,70.2,41.3,29.62,North,353,0.0,0.0,35,0.00,,---,0.00,VWS V13.01,2013-07-29 05:00:00,
2013-07-29 01:20:00,70.2,42.0,29.62,North,353,0.0,0.0,36,0.00,,---,0.00,VWS V13.01,2013-07-29 05:20:00,
2013-07-29 01:40:00,70.2,42.0,29.62,North,353,0.0,0.0,36,0.00,,---,0.00,VWS V13.01,2013-07-29 05:40:00,
2013-07-29 02:00:00,70.2,42.0,29.62,North,353,0.0,0.0,36,0.00,,---,0.00,VWS V13.01,2013-07-29 06:00:00,
2013-07-29 02:20:00,70.2,42.0,29.62,North,353,0.0,0.0,36,0.00,,---,0.00,VWS V13.01,2013-07-29 06:20:00,
2013-07-29 02:40:00,70.2,42.0,29.65,North,353,0.0,0.0,36,0.00,,---,0.00,VWS V13.01,2013-07-29 06:40:00,
2013-07-29 03:00:00,69.8,41.7,29.62,North,353,0.0,0.0,36,0.00,,---,0.00,VWS V13.01,2013-07-29 07:00:00,
2013-07-29 03:20:00,69.4,42.1,29.62,North,353,0.0,0.0,37,0.00,,---,0.00,VWS V13.01,2013-07-29 07:20:00,
2013-07-29 03:40:00,69.4,42.1,29.62,North,353,0.0,0.0,37,0.00,,---,0.00,VWS V13.01,2013-07-29 07:40:00,
2013-07-29 04:00:00,69.3,41.9,29.62,North,353,0.0,0.0,37,0.00,,---,0.00,VWS V13.01,2013-07-29 08:00:00,
2013-07-29 04:20:00,69.4,43.4,29.65,North,353,0.0,0.0,39,0.00,,---,0.00,VWS V13.01,2013-07-29 08:20:00,
2013-07-29 04:40:00,69.3,42.6,29.65,North,353,0.0,0.0,38,0.00,,---,0.00,VWS V13.01,2013-07-29 08:40:00,
2013-07-29 05:00:00,68.9,42.3,29.65,North,353,0.0,0.0,38,0.00,,---,0.00,VWS V13.01,2013-07-29 09:00:00,
2013-07-29 05:20:00,68.5,42.0,29.62,North,353,0.0,0.0,38,0.00,,---,0.00,VWS V13.01,2013-07-29 09:20:00,
2013-07-29 05:40:00,68.7,42.8,29.62,North,353,0.0,0.0,39,0.00,,---,0.00,VWS V13.01,2013-07-29 09:40:00,
2013-07-29 06:00:00,68.7,42.8,29.62,North,353,0.0,0.0,39,0.00,,---,0.00,VWS V13.01,2013-07-29 10:00:00,
2013-07-29 06:40:00,69.3,43.9,29.65,North,353,0.0,0.0,40,0.00,,---,0.00,VWS V13.01,2013-07-29 10:40:00,
2013-07-29 07:00:00,69.4,44.1,29.65,North,353,0.0,0.0,40,0.00,,---,0.00,VWS V13.01,2013-07-29 11:00:00,
2013-07-29 07:20:00,70.0,44.6,29.65,North,353,0.0,0.0,40,0.00,,---,0.00,VWS V13.01,2013-07-29 11:20:00,
2013-07-29 08:20:00,71.8,44.1,29.65,NE,48,0.0,0.0,37,0.00,,---,0.00,VWS V13.01,2013-07-29 12:20:00,
2013-07-29 08:40:00,73.2,44.0,29.68,NE,48,0.0,0.0,35,0.00,,---,0.00,VWS V13.01,2013-07-29 12:40:00,
2013-07-29 09:00:00,74.1,34.0,29.68,WSW,244,0.0,0.0,23,0.00,,---,0.00,VWS V13.01,2013-07-29 13:00:00,
2013-07-29 09:20:00,73.2,39.1,29.68,WSW,244,0.0,0.0,29,0.00,,---,0.00,VWS V13.01,2013-07-29 13:20:00,
2013-07-29 09:40:00,75.0,36.8,29.68,WNW,303,0.0,0.0,25,0.00,,---,0.00,VWS V13.01,2013-07-29 13:40:00,
2013-07-29 10:00:00,76.6,33.8,29.68,NE,38,0.0,0.0,21,0.00,,---,0.00,VWS V13.01,2013-07-29 14:00:00,
2013-07-29 10:20:00,76.3,33.5,29.68,WNW,292,0.0,0.0,21,0.00,,---,0.00,VWS V13.01,2013-07-29 14:20:00,
2013-07-29 11:00:00,75.4,32.8,29.68,WSW,251,0.0,0.0,21,0.00,,---,0.00,VWS V13.01,2013-07-29 15:00:00,
2013-07-29 11:40:00,77.5,33.3,29.68,West,278,0.0,0.0,20,0.00,,---,0.00,VWS V13.01,2013-07-29 15:40:00,
2013-07-29 12:20:00,79.2,27.6,29.68,NW,313,0.0,0.0,15,0.00,,---,0.00,VWS V13.01,2013-07-29 16:20:00,
2013-07-29 12:40:00,79.3,27.7,29.65,NW,324,0.0,0.0,15,0.00,,---,0.00,VWS V13.01,2013-07-29 16:40:00,
2013-07-29 13:00:00,80.8,27.2,29.65,SSW,205,0.0,0.0,14,0.00,,---,0.00,VWS V13.01,2013-07-29 17:00:00,
2013-07-29 13:20:00,81.0,27.3,29.65,WSW,238,0.0,0.0,14,0.00,,---,0.00,VWS V13.01,2013-07-29 17:20:00,
2013-07-29 13:40:00,81.5,24.0,29.65,North,357,0.0,2.7,12,0.00,,---,0.00,VWS V13.01,2013-07-29 17:40:00,
2013-07-29 14:00:00,81.7,24.2,29.65,WSW,247,0.0,0.0,12,0.00,,---,0.00,VWS V13.01,2013-07-29 18:00:00,
2013-07-29 14:20:00,83.1,23.2,29.65,WSW,246,0.0,0.0,11,0.00,,---,0.00,VWS V13.01,2013-07-29 18:20:00,
2013-07-29 14:40:00,81.9,24.3,29.65,West,266,0.0,0.0,12,0.00,,---,0.00,VWS V13.01,2013-07-29 18:40:00,
2013-07-29 15:00:00,81.5,24.0,29.65,NW,321,0.0,0.0,12,0.00,,---,0.00,VWS V13.01,2013-07-29 19:00:00,
2013-07-29 15:20:00,83.3,23.4,29.65,NW,326,0.0,0.0,11,0.00,,---,0.00,VWS V13.01,2013-07-29 19:20:00,
2013-07-29 15:40:00,82.6,22.8,29.65,West,267,0.0,0.0,11,0.00,,---,0.00,VWS V13.01,2013-07-29 19:40:00,
2013-07-29 16:00:00,80.8,23.5,29.65,WNW,293,0.0,0.0,12,0.00,,---,0.00,VWS V13.01,2013-07-29 20:00:00,
2013-07-29 16:20:00,81.9,24.3,29.65,NNW,335,0.0,0.0,12,0.00,,---,0.00,VWS V13.01,2013-07-29 20:20:00,
2013-07-29 16:40:00,82.0,24.5,29.65,NE,34,0.0,0.0,12,0.00,,---,0.00,VWS V13.01,2013-07-29 20:40:00,
2013-07-29 17:00:00,80.1,22.9,29.65,NW,326,0.0,0.0,12,0.00,,---,0.00,VWS V13.01,2013-07-29 21:00:00,
2013-07-29 17:20:00,81.1,23.8,29.65,SW,215,3.6,3.6,12,0.00,,---,0.00,VWS V13.01,2013-07-29 21:20:00,
2013-07-29 17:40:00,81.1,23.8,29.65,NNW,334,0.0,3.6,12,0.00,,---,0.00,VWS V13.01,2013-07-29 21:40:00,
2013-07-29 18:00:00,80.8,23.5,29.65,WSW,249,0.0,2.7,12,0.00,,---,0.00,VWS V13.01,2013-07-29 22:00:00,
2013-07-29 18:40:00,79.0,22.1,29.65,NW,310,0.0,0.0,12,0.00,,---,0.00,VWS V13.01,2013-07-29 22:40:00,
2013-07-29 19:00:00,79.0,22.1,29.65,WNW,293,0.0,0.0,12,0.00,,---,0.00,VWS V13.01,2013-07-29 23:00:00,
2013-07-29 19:40:00,79.0,22.1,29.68,WSW,251,0.0,0.0,12,0.00,,---,0.00,VWS V13.01,2013-07-29 23:40:00,
2013-07-29 20:00:00,74.3,20.3,29.68,WSW,251,0.0,0.0,13,0.00,,---,0.00,VWS V13.01,2013-07-30 00:00:00,
2013-07-29 20:20:00,73.4,19.6,29.68,WSW,251,0.0,0.0,13,0.00,,---,0.00,VWS V13.01,2013-07-30 00:20:00,
2013-07-29 21:00:00,71.6,19.9,29.71,WSW,251,0.0,0.0,14,0.00,,---,0.00,VWS V13.01,2013-07-30 01:00:00,
2013-07-29 21:20:00,68.9,19.4,29.71,WSW,251,0.0,0.0,15,0.00,,---,0.00,VWS V13.01,2013-07-30 01:20:00,
2013-07-29 21:40:00,68.2,18.8,29.71,WSW,251,0.0,0.0,15,0.00,,---,0.00,VWS V13.01,2013-07-30 01:40:00,
2013-07-29 22:00:00,67.1,20.9,29.71,WSW,251,0.0,0.0,17,0.00,,---,0.00,VWS V13.01,2013-07-30 02:00:00,
2013-07-29 22:20:00,66.4,20.3,29.71,WSW,251,0.0,0.0,17,0.00,,---,0.00,VWS V13.01,2013-07-30 02:20:00,
2013-07-29 22:40:00,66.4,20.3,29.71,WSW,251,0.0,0.0,17,0.00,,---,0.00,VWS V13.01,2013-07-30 02:40:00,
2013-07-29 23:00:00,66.4,20.3,29.71,WSW,251,0.0,0.0,17,0.00,,---,0.00,VWS V13.01,2013-07-30 03:00:00,
2013-07-29 23:20:00,66.4,20.3,29.74,WSW,251,0.0,0.0,17,0.00,,---,0.00,VWS V13.01,2013-07-30 03:20:00,
2013-07-29 23:40:00,66.4,20.3,29.74,WSW,251,0.0,0.0,17,0.00,,---,0.00,VWS V13.01,2013-07-30 03:40:00,